|
ITAMSAT 1 - Orbit
|
Howell Observatory;
00:13:29
| Home | Info | Passes |
|
View from above orbital plane
|
View from above satellite
|
Ground track
|
The orbit data is extracted from the following two-line orbital elements,
1 22826U 93061D 13169.12689194 .00000044 00000-0 34231-4 0 1671
2 22826 098.6120 113.4280 0007745 279.0169 207.0176 14.29854280 28897
| Epoch (UTC): | 18 June 2013 03:02:43 |
| Eccentricity: | 0.0007745 |
| inclination: | 98.6120° |
| perigee height: | 786 km |
| apogee height: | 798 km |
| right ascension of ascending node: | 113.4280° |
| argument of perigee: | 279.0169° |
| revolutions per day: | 14.29854280 |
| mean anomaly at epoch: | 207.0176° |
| orbit number at epoch: | 2889 |
The dashed part of the orbit path shows where the satellite is in the earth's shadow,
|
|